Lid_Strength_Index
0 0 1 1 0 0 1 1 3 5 4 2 2 -0 -0 -0 -1 -2 -2 -0 0 1 1 2 1 0 0 -0 -0 0 -0 -0 -0 -0 -0 -0 -0 -1
0 0 0 0 0 0 0 1 1 3 4 2 1 0 -0 -0 -1 -1 -2 0 1 2 2 3 2 1 1 1 0 0 0 0 -0 0 1 1 0 -1
0 0 1 0 1 1 1 1 1 1 3 2 1 -0 0 0 -0 -1 -1 -1 -1 2 2 2 2 3 3 3 2 1 1 1 1 1 1 0 -1 -1
1 1 1 0 1 1 1 1 1 1 2 3 2 1 1 0 -1 -0 -0 -1 -1 1 2 2 3 3 4 3 3 3 3 2 2 2 1 0 -0 -0
0 1 1 1 1 1 1 1 1 1 1 2 3 1 1 0 0 -0 0 -0 -0 0 2 3 3 4 4 4 4 5 5 5 4 4 2 1 1 0
0 0 0 1 1 1 1 1 1 2 2 2 2 2 2 1 1 2 2 1 1 -0 0 1 1 2 3 4 4 4 6 7 7 6 4 4 3 2
0 0 -0 0 1 1 1 1 1 2 2 2 3 2 2 2 3 2 2 1 1 0 1 0 0 0 -0 3 1 3 5 6 7 7 5 5 5 4
1 0 0 0 1 1 1 1 1 2 2 3 3 3 3 2 2 2 2 3 4 0 1 1 -0 1 -0 -0 2 3 5 6 7 7 6 6 6 6
1 1 1 0 0 0 1 2 2 2 2 1 2 2 2 2 1 2 2 2 3 1 1 2 0 1 -0 -0 3 4 5 6 7 7 6 6 6 7
0 0 1 1 0 0 1 1 1 1 0 1 1 1 1 0 0 1 1 1 1 1 0 3 1 1 0 0 4 5 6 6 6 7 6 7 7 8
0 0 0 0 1 3 1 2 2 1 1 3 3 3 4 4 2 1 2 3 3 3 1 2 2 2 1 1 -0 5 6 7 7 7 7 7 8 9
1 0 1 0 2 3 1 2 3 2 1 1 1 1 3 1 4 0 1 3 3 4 1 2 2 2 3 1 0 0 2 8 8 8 8 8 9 2
1 1 0 2 4 6 6 2 2 1 1 1 1 1 1 1 1 0 0 1 3 3 1 1 2 2 2 2 1 1 0 1 2 4 10 10 10 4
2 1 1 4 7 8 7 5 6 5 3 2 2 2 2 2 1 0 0 0 0 1 -0 0 2 2 3 3 3 1 1 0 0 0 0 5 10 9
1 1 4 6 7 6 5 5 5 5 5 3 3 3 2 1 0 0 0 -0 -0 0 -0 -0 1 1 1 3 3 2 2 1 0 1 0 1 2 3
1 1 3 5 6 4 4 3 3 3 2 3 3 2 1 1 1 1 2 1 2 2 -0 -0 0 1 2 2 2 3 2 3 1 1 1 0 0 -0
6 2 1 2 2 2 2 3 2 2 2 2 2 3 2 2 2 1 1 2 3 3 2 1 0 0 1 1 3 2 2 2 2 1 1 2 1 0
5 2 2 2 2 3 4 4 3 3 2 2 2 2 3 3 2 2 2 3 3 3 3 2 2 2 2 1 4 2 2 2 1 2 1 2 2 1
4 3 2 2 2 2 3 4 4 3 2 2 3 3 3 3 3 3 3 3 3 3 2 2 2 3 5 6 4 10 2 2 2 2 2 2 2 2
2 2 2 2 2 2 2 4 3 3 4 4 2 2 3 3 3 3 3 3 3 3 3 2 3 3 4 5 4 5 11 5 2 3 6 8 8 8
2 2 2 1 1 2 2 2 2 3 3 4 4 3 3 4 4 3 3 6 5 2 4 4 2 4 3 5 6 7 8 9 6 4 7 6 7 7
2 2 1 1 1 1 2 1 2 3 3 4 4 4 4 4 4 5 5 6 6 4 3 4 4 3 4 5 7 9 8 7 8 10 10 8 6 8
1 1 1 1 1 1 1 2 2 3 3 4 4 4 4 5 5 6 6 6 6 6 5 5 5 6 6 7 8 8 8 7 7 8 9 10 9 9